Regional Weather Roundup
Issued by NWS

Home | Current Version | Previous Version | Graphics & Text | Print | Product List | Glossary On
Versions: 1 2 3 4 5 6 7 8 9 10 11 12 13 14 15 16 17 18 19 20 21 22 23 24 25 26 27 28 29 30 31 32 33 34 35 36 37 38 39 40 41 42 43 44 45 46 47 48 49 50
000
ASUS43 KMPX 240410
RWRMN
WEATHER ROUNDUP FOR MINNESOTA
NATIONAL WEATHER SERVICE TWIN CITIES/CHANHASSEN MN
1100 PM CDT SAT SEP 23 2017


NOTE: "FAIR" INDICATES FEW OR NO CLOUDS BELOW 12,000 FEET WITH NO
SIGNIFICANT WEATHER AND/OR OBSTRUCTIONS TO VISIBILITY. N/A MEANS
CURRENT SKY AND/OR WEATHER CONDITIONS ARE NOT AVAILABLE.

MNZ060>063-068>070-240500-
   Twin Cities Metro

CITY           SKY/WX    TMP DP  RH WIND       PRES   REMARKS
TWIN CITIES    MOCLDY    80  67  64 S9        29.93R
ST PAUL        PTCLDY    75  70  84 SE6       29.93R
CRYSTAL        CLOUDY    73  66  78 N5        29.93R
BLAINE         CLOUDY    73  70  88 NW5       29.94R
LAKEVILLE      CLOUDY    68  68 100 CALM      29.94S
EDEN PRAIRIE   CLOUDY    75  70  84 N5        29.93R
SOUTH ST PAUL  MOCLDY    76  67  73 S3        29.93R
LAKE ELMO      FAIR      75  68  78 SE3       29.96R
$$
MNZ001>005-007-008-013>017-022>024-027-028-240500-
   Northwest Minnesota

CITY           SKY/WX    TMP DP  RH WIND       PRES   REMARKS
BEMIDJI        RAIN      54  54  98 NE6       30.02F
HALLOCK        RAIN      54  52  94 N9        30.04R
ROSEAU         CLOUDY    55  50  82 NE10      30.03F
WARROAD        CLOUDY    55  52  88 NE12      30.04F
THIEF RVR FALL LGT RAIN  55  52  89 NE10      30.01F
CROOKSTON      DRIZZLE   55  54  94 E7        30.00S
FOSSTON        DRIZZLE   54  52  94 E6        30.01F
DETROIT LAKES  LGT RAIN  55  54  94 E7        29.98F
MOORHEAD       DRIZZLE   55  54  94 NE6       29.96S
PARK RAPIDS    LGT RAIN  57  55  93 E7        30.00F
MAHNOMEN       DRIZZLE   54  53  97 E12       29.97F
$$
MNZ006-009>011-018-025>026-240500-
   North Central Minnesota

CITY           SKY/WX    TMP DP  RH WIND       PRES   REMARKS
BAUDETTE       CLOUDY    55  54  96 E6        30.05R
FLAG ISLAND    CLOUDY    55  52  88 N12       30.03S
INTL FALLS     CLOUDY    57  54  89 CALM      30.05R
WASKISH        CLOUDY    55  54  94 CALM      30.05
BIG FORK       LGT RAIN  55  54  94 CALM      30.04F
LONGVILLE      LGT RAIN  57  57 100 CALM      30.02R
GRAND RAPIDS   LGT RAIN  57  57 100 N5        30.03F
CRANE LAKE     CLOUDY    57  55  94 CALM      30.06S
ORR            DRIZZLE   55  54  94 CALM      30.00F
COOK           CLOUDY    57  55  94 N5        30.03F
WALKER         DRIZZLE   55  54  97 E3        30.01F
$$
MNZ012-019>021-037-240500-
   Northeast Minnesota

CITY           SKY/WX    TMP DP  RH WIND       PRES   REMARKS
DULUTH         CLOUDY    65  65 100 N7        29.99F
ELY            LGT RAIN  59  57  94 CALM      30.03F
HIBBING        CLOUDY    58  57  97 N3        30.01F
EVELETH        CLOUDY    60  56  88 CALM      30.02F
DULUTH HARBOR  CLOUDY    66  64  94 NE5       29.97S
GRAND MARAIS     N/A     67  64  90 CALM      30.00R
$$
MNZ029>031-032-039>041-046>048-054>057-064-240500-
   West Central Minnesota

CITY           SKY/WX    TMP DP  RH WIND       PRES   REMARKS
FERGUS FALLS   RAIN      57  57 100 E8        29.97R
WHEATON        HVY RAIN  55  54  94 CALM      29.97F
ALEXANDRIA     RAIN      59  58  96 NE9       29.97F
ELBOW LAKE     TSTM      58  58 100 NE10G16   29.95F
WADENA         HVY RAIN  55  55 100 NE8       29.99F
GLENWOOD       RAIN      61  59  94 NE18G35   29.95F
APPLETON       CLOUDY    61  57  88 N6        29.94R
BENSON         CLOUDY    63  61  94 SE3G9     29.94R
ORTONVILLE     CLOUDY    57  55  94 NE12      29.93F
MADISON        CLOUDY    61  61 100 N6        29.94F
WILLMAR        MOCLDY    66  64  94 NE9       29.95R
$$
MNZ033>034-036-042>043-049>051-058-059-240500-
   Central Minnesota

CITY           SKY/WX    TMP DP  RH WIND       PRES   REMARKS
ST CLOUD       CLOUDY    65  65 100 N6        29.95S
SAUK CENTRE    CLOUDY    60  59  97 NE8       29.96F
PAYNESVILLE    CLOUDY    64  63  99 N6        29.96R
AITKIN         RAIN      59  57  94 CALM      30.00R
PINE RIVER     LGT RAIN  55  54  94 E3        30.06R
BRAINERD       RAIN      60  59  96 N5        30.02R FOG
STAPLES        RAIN      55  55 100 NE5       30.00F
LITTLE FALLS   LGT RAIN  61  59  94 CALM      29.98S
LITCHFIELD     CLOUDY    66  66 100 NE6       29.95R
BUFFALO        MOCLDY    67  64  87 N6        29.95S
MAPLE LAKE     MOCLDY    67  66  96 N5        29.95S
HUTCHINSON     CLOUDY    68  66  93 NE9       29.94S
$$
MNZ037-044-045-052-053-240500-
   East Central Minnesota

CITY           SKY/WX    TMP DP  RH WIND       PRES   REMARKS
PRINCETON      CLOUDY    68  66  94 NW6       29.95F
MORA           CLOUDY    64  63  94 W6        30.00R
RUSH CITY      CLOUDY    69  66  91 N7        29.95F
MOOSE LAKE     CLOUDY    64  61  88 N7        29.96R
HINCKLEY       CLOUDY    68  66  94 NW3       29.98R
CLOQUET        CLOUDY    66  61  82 NE6       29.98F
MCGREGOR       CLOUDY    63  61  94 W3        30.01R
$$
MNZ071>073-080-081-089-090-097-098-240500-
   Southwest Minnesota

CITY           SKY/WX    TMP DP  RH WIND       PRES   REMARKS
MONTEVIDEO     CLOUDY    59  59 100 W3        29.94R
GRANITE FALLS  CLOUDY    59  59  99 SW3       29.94F
CANBY          CLOUDY    57  56  95 NW16      30.00R
MARSHALL       CLOUDY    56  56 100 NW7       29.95S FOG
REDWOOD FALLS  CLOUDY    64  62  93 CALM      29.92S
OLIVIA         MOCLDY    64  63  94 NE3       29.92S
PIPESTONE      CLOUDY    61  57  88 N7G28     29.96R
WORTHINGTON    MOCLDY    62  61  96 CALM      29.94S
JACKSON        CLOUDY    64  63  94 CALM      29.94S
TRACY          FOG       59  59  99 NW3       29.94F VSB 1
SLAYTON        CLOUDY    64  56  76 NE6       29.94S
$$
MNZ065>067-074>077-082>085-091>093-240500-
   South Central Minnesota

CITY           SKY/WX    TMP DP  RH WIND       PRES   REMARKS
MANKATO        CLOUDY    74  64  71 S6        29.94R
NEW ULM        PTCLDY    68  64  88 CALM      29.92S
ST JAMES       PTCLDY    64  64 100 CALM      29.93F
FAIRMONT       CLOUDY    72  64  76 S9        29.93S
FARIBAULT      MOCLDY    77  64  65 S5        29.95R
OWATONNA       PTCLDY    79  63  57 S9        29.96R
WASECA         MOCLDY    72  61  68 SE6       29.96R
ALBERT LEA     PTCLDY    75  64  69 S5        29.97R
$$
MNZ078>079-086>088-094>096-240500-
   Southeast Minnesota

CITY           SKY/WX    TMP DP  RH WIND       PRES   REMARKS
ROCHESTER      CLEAR     70  64  81 S7        30.00R
RED WING       PTCLDY    75  64  69 CALM      29.94S
STANTON        MOCLDY    76  64  64 S8        29.93S
DODGE CENTER   PTCLDY    70  63  78 SE6       29.98S
WINONA         CLEAR     70  64  83 CALM      29.98S
AUSTIN         CLEAR     73  63  68 SE5       29.98R
PRESTON        CLEAR     73  62  66 S7        30.01S
$$
ABBREVIATIONS USED IN REMARKS
   TC - TEMPERATURES IN CELSIUS
  WCI - WIND CHILL INDEX
   HX - HEAT INDEX
  VSB - VISIBILITY
$$



USA.gov is the U.S. government's official web portal to all federal, state and local government web resources and services.